Home   Weather   Switzerland   Biel   Past weeks
Flag for Switzerland

Past Weather in Biel, Switzerland — Yesterday and Last 2 Weeks

Currently: 36 °F. Clear. (Weather station: Grenchen, Switzerland). See more current weather

Past Weather in Biel — Graph

°F

Biel Temperature Yesterday

Maximum temperature yesterday: 48 °F (at 2:20 pm)
Minimum temperature yesterday: 41 °F (at 8:20 pm)
Average temperature yesterday: 44 °F

High & Low Weather Summary for the Past Weeks

 TemperatureHumidityPressure
High63 °F (Feb 25, 3:50 pm)100% (Feb 15, 12:20 am)30.63 "Hg (Feb 15, 12:20 am)
Low16 °F (Feb 14, 2:50 am)39% (Feb 23, 3:50 pm)29.98 "Hg (Feb 18, 4:50 pm)
Average39 °F84%30.33 "Hg
* Reported Feb 13 7:20 pm — Feb 28 7:20 pm, Biel. Weather by CustomWeather, © 2021

Note: Actual official high and low records may vary slightly from our data, if they occured in-between our weather recording intervals... More about our weather records

Biel Weather History for the Previous 24 Hours

Scroll right to see more
 ConditionsComfort  
Time TempWeatherWind HumidityBarometerVisibility
7:20 pm
Sun, Feb 28
36 °FChilly.5 mph87%30.42 "HgN/A
6:50 pm39 °FSunny.5 mph81%30.42 "Hg10 mi
6:20 pm41 °FSunny.3 mph76%30.42 "Hg10 mi
5:50 pm43 °FSunny.5 mph71%30.42 "Hg10 mi
5:20 pm43 °FSunny.7 mph71%30.42 "Hg10 mi
4:50 pm45 °FSunny.9 mph66%30.42 "Hg10 mi
4:20 pm43 °FSunny.9 mph71%30.42 "Hg10 mi
3:50 pm43 °FSunny.9 mph71%30.42 "Hg10 mi
3:20 pm43 °FPassing clouds.9 mph76%30.42 "HgN/A
2:50 pm41 °FPassing clouds.9 mph76%30.45 "HgN/A
2:20 pm43 °FScattered clouds.8 mph76%30.45 "HgN/A
1:50 pm41 °FPartly sunny.7 mph76%30.45 "HgN/A
1:20 pm39 °FOvercast.7 mph81%30.45 "HgN/A
12:50 pm39 °FOvercast.6 mph81%30.45 "HgN/A
12:20 pm39 °FOvercast.7 mph81%30.48 "HgN/A
11:50 am39 °FOvercast.8 mph75%30.48 "HgN/A
11:20 am37 °FOvercast.7 mph81%30.45 "HgN/A
10:50 am37 °FOvercast.9 mph81%30.48 "HgN/A
10:20 am37 °FOvercast.10 mph81%30.45 "HgN/A
9:50 am37 °FOvercast.10 mph81%30.45 "HgN/A
9:20 am37 °FOvercast.12 mph81%30.45 "HgN/A
8:50 am37 °FOvercast.12 mph81%30.45 "HgN/A
8:20 am37 °FOvercast.13 mph81%30.45 "HgN/A
7:50 am37 °FOvercast.13 mph75%30.45 "HgN/A
7:20 am37 °FOvercast.14 mph75%30.45 "HgN/A
6:50 am37 °FOvercast.14 mph75%30.45 "HgN/A
6:20 am37 °FOvercast.15 mph75%30.45 "HgN/A
5:50 am37 °FOvercast.16 mph75%30.45 "HgN/A
5:20 am37 °FOvercast.14 mph75%30.45 "HgN/A
4:50 am37 °FOvercast.14 mph75%30.45 "HgN/A
4:20 am39 °FOvercast.14 mph70%30.45 "HgN/A
3:50 am39 °FOvercast.13 mph70%30.45 "HgN/A
3:20 am39 °FPassing clouds.13 mph70%30.45 "HgN/A
2:50 am39 °FOvercast.10 mph70%30.45 "HgN/A
2:20 am39 °FOvercast.12 mph70%30.45 "HgN/A
1:50 am39 °FOvercast.12 mph70%30.45 "HgN/A
1:20 am39 °FOvercast.13 mph70%30.45 "HgN/A
12:50 am39 °FOvercast.14 mph70%30.45 "HgN/A
12:20 am41 °FOvercast.15 mph66%30.45 "HgN/A
11:50 pm
Sat, Feb 27
41 °FPassing clouds.16 mph66%30.45 "HgN/A
11:20 pm41 °FPassing clouds.18 mph66%30.45 "HgN/A
10:50 pm41 °FOvercast.16 mph66%30.45 "HgN/A
10:20 pm41 °FPassing clouds.17 mph66%30.45 "HgN/A
9:50 pm41 °FPassing clouds.18 mph66%30.45 "HgN/A
9:20 pm41 °FPassing clouds.21 mph66%30.45 "HgN/A
8:50 pm41 °FPassing clouds.22 mph66%30.45 "HgN/A
8:20 pm41 °FQuite cool.23 mph70%30.45 "HgN/A
Weather by CustomWeather, © 2021

See weather overview